Regional Weather Roundup
Issued by NWS

Home | Current Version | Previous Version | Text Only | Print | Product List | Glossary Off
Versions: 1 2 3 4 5 6 7 8 9 10 11 12 13 14 15 16 17 18 19 20 21 22 23 24 25 26 27 28 29 30 31 32 33 34 35 36 37 38 39 40 41 42 43 44 45 46 47 48 49 50

539
ASUS44 KJAN 222210
RWRMS

MISSISSIPPI HOURLY WEATHER ROUNDUP
NATIONAL WEATHER SERVICE JACKSON MS
500 PM CDT TUE APR 22 2014

NOTE: "FAIR: INDICATES FEW OR NO CLOUDS BELOW 12,000 FEET WITH NO
SIGNIFICANT WEATHER AND/OR OBSTRUCTIONS TO VISIBILITY.

MSZ001>002-007>008-010>013-018>021-025>028-034>036-222300-
NORTHWEST MISSISSIPPI

CITY           SKY/WX    TMP DP  RH WIND       PRES   REMARKS
CLARKSDALE       N/A     77  59  53 N12       29.92S
CLEVELAND      FAIR      76  63  64 N12G17    29.90S
GREENWOOD      PTSUNNY   78  61  55 NW9       29.89S
GREENVILLE     SUNNY     74  62  66 N7        29.90F
GRENADA        FAIR      77  59  53 NW10G16   29.88S
OLIVE BRANCH   MOSUNNY   73  54  49 N12       29.91F
OXFORD         FAIR      75  55  50 N9        29.91S
TUNICA         CLEAR     73  55  53 N13       29.92F
$$

MSZ003>006-009-014>017-022>024-029>033-037>039-222300-
NORTHEAST MISSISSIPPI

CITY           SKY/WX    TMP DP  RH WIND       PRES   REMARKS
BELMONT        FAIR      75  60  59 NW6       29.87S
COLUMBUS AFB   SUNNY     78  60  52 VRB3      29.87S
CORINTH        MOCLDY    75  55  50 NW14      29.87S
GOLDN TRIANGLE PTSUNNY   75  61  60 CALM      29.90F
STARKVILLE     FAIR      75  61  60 W3        29.88S
TUPELO         MOSUNNY   79  58  48 N7        29.86F
$$

MSZ040-058-222300-
CENTRAL MISSISSIPPI

CITY           SKY/WX    TMP DP  RH WIND       PRES   REMARKS
JACKSON INTL   PTSUNNY   77  61  57 NW9       29.89F
JACKSON HAWKNS PTSUNNY   77  59  53 VRB5      29.90F
MERIDIAN KEY   CLOUDY    70  63  78 CALM      29.90S
MERIDIAN NAS   CLOUDY    69  62  78 CALM      29.90S
RAYMOND        FAIR      77  72  83 NW7       29.90S
VICKSBURG      MOSUNNY   79  62  56 N9        29.91F
$$

MSZ059>079-222300-
SOUTH MISSISSIPPI

CITY           SKY/WX    TMP DP  RH WIND       PRES   REMARKS
BROOKHAVEN     MOCLDY    73  64  73 N5        29.93S
HATTIESBURG    LGT RAIN  74  65  73 NW3       29.89S
MCCOMB         CLOUDY    76  61  59 N7        29.91S
NATCHEZ        MOSUNNY   75  61  60 N8        29.92S
PINE BELT      CLOUDY    73  64  73 N8        29.90S
$$

MSZ080>082-222300-
COASTAL MISSISSIPPI

CITY           SKY/WX    TMP DP  RH WIND       PRES   REMARKS
BAY ST LOUIS   PTSUNNY   77  63  61 W8        29.88F
BILOXI         LGT RAIN  72  66  83 SW9       29.88S
PASCAGOULA     CLOUDY    75  64  68 N3        29.87F
GULFPORT       MOSUNNY   76  65  68 S7        29.87F
$$



USA.gov is the U.S. government's official web portal to all federal, state and local government web resources and services.